sat.trackr.live / text

‹ back to catalog

STARLINK-34037

NORAD 63847 · 2025-093M

PAYLOAD ACTIVE UNKNOWN

§ Identity

Operator
Country
US
Launch date
2025-05-07
Launch site
AFETR
Launch vehicle
Mass (kg)
RCS (m²)

Purposes: comms

External: N2YO · Heavens-Above · Gunter

§ Orbital elements

Epoch: 2026-05-24T23:55:27.104736Z

Period
94.27 min
Inclination
43.0015°
Eccentricity
0.0001256
Mean motion
15.27596195 rev/d
Perigee alt
482.1 km
Apogee alt
483.9 km
Semi-major
6,861.1 km
B*
5.6969e-4
RAAN
6.8534°
Arg perigee
277.9635°
Mean anomaly
82.1074°
Rev number
5,964

§ Raw data

STARLINK-340371 63847U 25093M   26144.99684149  .00015455  00000+0  56969-3 0  99912 63847  43.0015   6.8534 0001256 277.9635  82.1074 15.27596195 59648

JSON: /api/v1/satellites/63847 · /tle

For live sub-satellite position, see the globe view (requires WebGL).

§ Visibility from observer

Set your observer location to see the next 7 days of passes ≥ 10°. The values pass through the URL so the page stays shareable.

No JS? Fill the form by hand. The geolocation button needs JavaScript.